Flag for Germany Weather past 2 weeks in Monheim am Rhein, North Rhine-Westphalia, Germany

Now
59 °F

Broken clouds.


Feels Like: 58 °F
Forecast: 44 / 54 °F
Wind: 8 mph from West

Location: Duesseldorf

Current Time: Apr 26, 2015 at 12:51:20 PM

Latest Report: Apr 26, 2015 at 12:20 PM


Visibility: N/A

Pressure: 29.74 "Hg

Humidity: 72%

Dew point: 50 °F

Location of Monheim am RheinLocation

Historic Weather in Monheim am Rhein — Graph

°F

Monheim am Rhein temperature yesterday

Maximum temperature yesterday: 63 °F (at 12:20 AM)
Minimum temperature yesterday: 52 °F (at 9:20 AM)
Average temperature yesterday: 56 °F

Past Weeks' High & Low Weather Summary

 TemperatureHumidityPressure
High75 °F (Apr 15, 3:20 PM)100% (Apr 23, 6:20 AM)30.48 "Hg (Apr 23, 6:20 AM)
Low36 °F (Apr 18, 4:50 AM)23% (Apr 21, 3:20 PM)29.71 "Hg (Apr 26, 5:50 AM)
Average53 °F64%30.16 "Hg
* Reported Apr 11 11:20 AM — Apr 26 11:50 AM, Monheim am Rhein, Weather by CustomWeather, © 2015

Note: Actual official high and low records may vary slightly from our data, if they occured in-between our weather recording intervals... More about our weather records

Advertising

Monheim am Rhein weather history for previous 24 hours

 ConditionsComfort  
Time TempWeatherWind HumidityBarometerVisibility
11:50 AM
Sun, Apr 26
59 °FBroken clouds.10 mph77%29.74 "HgN/A
11:20 AM59 °FBroken clouds.10 mph72%29.74 "HgN/A
10:50 AM59 °FBroken clouds.10 mph77%29.74 "HgN/A
10:20 AM57 °FBroken clouds.10 mph82%29.74 "HgN/A
9:50 AM57 °FBroken clouds.9 mph82%29.74 "HgN/A
9:20 AM57 °FPartly sunny.9 mph88%29.74 "HgN/A
8:50 AM55 °FPartly sunny.9 mph94%29.74 "HgN/A
8:20 AM55 °FBroken clouds.8 mph88%29.74 "HgN/A
7:50 AM55 °FPartly sunny.8 mph88%29.74 "HgN/A
7:20 AM54 °FBroken clouds.8 mph94%29.74 "HgN/A
6:50 AM54 °FPartly cloudy.8 mph94%29.74 "HgN/A
6:20 AM54 °FPassing clouds.8 mph94%29.71 "HgN/A
5:50 AM54 °FPassing clouds.7 mph94%29.71 "HgN/A
5:20 AM54 °FSprinkles. Partly cloudy.9 mph94%29.74 "HgN/A
4:50 AM54 °FSprinkles. Partly cloudy.9 mph94%29.74 "HgN/A
4:20 AM54 °FSprinkles. Partly cloudy.8 mph94%29.74 "HgN/A
3:50 AM54 °FSprinkles. Partly cloudy.9 mph94%29.74 "HgN/A
3:20 AM54 °FSprinkles. Partly cloudy.8 mph94%29.74 "HgN/A
2:50 AM54 °FSprinkles. Partly cloudy.8 mph94%29.74 "HgN/A
2:20 AM54 °FSprinkles. Partly cloudy.7 mph94%29.77 "HgN/A
1:50 AM54 °FRain showers. Partly cloudy.13 mph88%29.77 "HgN/A
1:20 AM54 °FPartly cloudy.8 mph88%29.77 "HgN/A
12:50 AM52 °FClear.8 mph94%29.77 "Hg10 mi
12:20 AM52 °FClear.7 mph94%29.77 "Hg10 mi
11:50 PM
Sat, Apr 25
54 °FClear.7 mph88%29.77 "Hg10 mi
11:20 PM54 °FClear.7 mph88%29.77 "Hg10 mi
10:50 PM55 °FClear.7 mph82%29.77 "Hg10 mi
10:20 PM55 °FPassing clouds.8 mph88%29.77 "HgN/A
9:50 PM55 °FPassing clouds.6 mph88%29.77 "HgN/A
9:20 PM55 °FScattered clouds.6 mph88%29.77 "HgN/A
8:50 PM57 °FScattered clouds.6 mph77%29.77 "HgN/A
8:20 PM57 °FPartly sunny.3 mph82%29.74 "HgN/A
7:50 PM57 °FBroken clouds.3 mph82%29.74 "HgN/A
7:20 PM59 °FBroken clouds.5 mph77%29.74 "HgN/A
6:50 PM57 °FBroken clouds.8 mph82%29.74 "HgN/A
6:20 PM57 °FBroken clouds.7 mph88%29.74 "HgN/A
5:50 PM57 °FRain showers. Broken clouds.8 mph82%29.74 "HgN/A
5:20 PM59 °FLight rain. Partly sunny.10 mph77%29.74 "HgN/A
4:50 PM59 °FPartly sunny.8 mph77%29.74 "HgN/A
4:20 PM57 °FSprinkles. Partly sunny.7 mph82%29.74 "HgN/A
3:50 PM57 °FScattered showers. Broken clouds.7 mph82%29.74 "HgN/A
3:20 PM57 °FSprinkles. Broken clouds.8 mph88%29.74 "Hg5 mi
2:50 PM59 °FLight rain. Mostly cloudy.8 mph77%29.77 "Hg6 mi
2:20 PM57 °FLight rain. Broken clouds.8 mph82%29.77 "Hg6 mi
1:50 PM57 °FLight rain. Cloudy.7 mph82%29.77 "Hg6 mi
1:20 PM57 °FLight rain. Cloudy.8 mph88%29.77 "Hg6 mi
12:50 PM57 °FLight rain. Cloudy.7 mph82%29.77 "Hg6 mi
12:20 PM57 °FLight rain. Cloudy.6 mph82%29.77 "Hg5 mi
Weather by CustomWeather, © 2015

See weather overviewHow to use our weather pages